Location: Krakow
(50.0830°N, 19.9170°E)
Time: 00:29:28
(UTC+01:00)

SR - All Passes

Search period start: 04 December 2023 00:00
Search period end: 14 December 2023 00:00
Orbit: 571 x 872 km, 66.7° (Epoch: 03 December)

Date Brightness Start Highest point End Pass type
(mag) Time Alt. Az. Time Alt. Az. Time Alt. Az.
04 Dec - 10:13:04 10° SSE 10:17:02 20° ESE 10:21:08 10° ENE daylight
04 Dec - 11:52:40 10° SW 11:58:18 86° NW 12:04:14 10° NE daylight
04 Dec - 13:36:16 10° W 13:41:08 27° NNW 13:46:07 10° NNE daylight
04 Dec - 15:21:39 10° NW 15:25:08 16° N 15:28:37 10° NNE daylight
04 Dec - 17:05:13 10° NNW 17:09:25 19° NNE 17:13:32 10° ENE visible
04 Dec - 18:47:10 10° NNW 18:52:51 47° NE 18:58:16 10° ESE visible
04 Dec - 20:29:24 10° NW 20:34:51 42° WSW 20:39:59 10° S visible
05 Dec - 09:25:36 10° ESE 09:26:07 10° E 09:26:38 10° E daylight
05 Dec - 11:01:22 10° SSW 11:06:48 56° ESE 11:12:33 10° NE daylight
05 Dec - 12:43:47 10° WSW 12:49:06 39° NW 12:54:37 10° NNE daylight
05 Dec - 14:28:52 10° WNW 14:32:45 18° NNW 14:36:40 10° NNE daylight
05 Dec - 16:13:25 10° NNW 16:17:04 16° N 16:20:41 10° NE visible
05 Dec - 17:55:40 10° NNW 18:00:55 32° NE 18:05:57 10° E visible
05 Dec - 19:37:37 10° NW 19:43:29 74° WSW 19:48:58 10° SSE visible
05 Dec - 21:21:30 10° WNW 21:24:25 14° WSW 21:27:16 10° SW visible
06 Dec - 10:10:41 10° S 10:15:32 32° ESE 10:20:38 10° NE daylight
06 Dec - 11:51:39 10° SW 11:57:15 60° NW 12:03:06 10° NNE daylight
06 Dec - 13:36:00 10° WNW 13:40:28 22° NNW 13:44:58 10° NNE daylight
06 Dec - 15:21:15 10° NW 15:24:39 15° N 15:28:03 10° NE daylight
06 Dec - 17:04:08 10° NNW 17:08:48 23° NNE 17:13:20 10° ENE visible
06 Dec - 18:46:00 10° NW 18:51:53 68° NE 18:57:25 10° SE visible
06 Dec - 20:28:40 10° NW 20:33:25 27° WSW 20:37:56 10° SSW visible
07 Dec - 09:20:54 10° SE 09:24:28 18° ESE 09:28:08 10° ENE daylight
07 Dec - 10:59:58 10° SSW 11:05:36 85° SE 11:11:32 10° NE daylight
07 Dec - 12:43:18 10° W 12:48:18 29° NNW 12:53:25 10° NNE daylight
07 Dec - 14:28:40 10° NW 14:32:14 16° N 14:35:47 10° NNE daylight
07 Dec - 16:12:29 10° NNW 16:16:31 19° NNE 16:20:30 10° ENE visible
07 Dec - 17:54:29 10° NNW 18:00:05 43° NE 18:05:24 10° ESE visible
07 Dec - 19:36:38 10° NW 19:42:12 48° WSW 19:47:26 10° S visible
08 Dec - 10:08:47 10° S 10:14:09 49° ESE 10:19:48 10° NE daylight
08 Dec - 11:50:53 10° WSW 11:56:18 43° NW 12:01:55 10° NNE daylight
08 Dec - 13:35:50 10° WNW 13:39:51 19° NNW 13:43:54 10° NNE daylight
08 Dec - 15:20:36 10° NNW 15:24:09 16° N 15:27:41 10° NE daylight
08 Dec - 17:02:59 10° NNW 17:08:05 29° NNE 17:13:00 10° E visible
08 Dec - 18:44:54 10° NW 18:50:46 83° SW 18:56:17 10° SSE visible
08 Dec - 20:28:22 10° WNW 20:31:51 17° WSW 20:35:13 10° SW visible
09 Dec - 09:18:15 10° SSE 09:22:55 28° ESE 09:27:46 10° NE daylight
09 Dec - 10:58:51 10° SW 11:04:29 67° NW 11:10:24 10° NE daylight
09 Dec - 12:42:59 10° WNW 12:47:35 23° NNW 12:52:15 10° NNE daylight
09 Dec - 14:28:19 10° NW 14:31:43 15° N 14:35:06 10° NE daylight
09 Dec - 16:11:26 10° NNW 16:15:55 22° NNE 16:20:18 10° ENE visible
09 Dec - 17:53:18 10° NNW 17:59:07 60° NE 18:04:36 10° SE visible
09 Dec - 19:35:49 10° NW 19:40:47 31° WSW 19:45:30 10° S visible
10 Dec - 08:28:48 10° SE 08:31:52 15° ESE 08:35:01 10° ENE daylight
10 Dec - 10:07:16 10° SSW 10:12:53 75° ESE 10:18:47 10° NE daylight
10 Dec - 11:50:19 10° W 11:55:27 32° NW 12:00:42 10° NNE daylight
10 Dec - 13:35:39 10° NW 13:39:17 16° N 13:42:56 10° NNE daylight
10 Dec - 15:19:43 10° NNW 15:23:36 18° NNE 15:27:27 10° ENE daylight
10 Dec - 17:01:47 10° NNW 17:07:15 39° NE 17:12:29 10° ESE visible
10 Dec - 18:43:51 10° NW 18:49:31 55° WSW 18:54:49 10° SSE visible
11 Dec - 09:16:12 10° S 09:21:28 43° ESE 09:26:59 10° NE daylight
11 Dec - 10:57:59 10° WSW 11:03:29 47° NW 11:09:12 10° NNE daylight
11 Dec - 12:42:46 10° WNW 12:46:55 19° NNW 12:51:07 10° NNE daylight
11 Dec - 14:27:44 10° NNW 14:31:12 16° N 14:34:39 10° NE daylight
11 Dec - 16:10:15 10° NNW 16:15:12 27° NNE 16:19:59 10° E visible
11 Dec - 17:52:09 10° NW 17:58:01 87° NE 18:03:31 10° SE visible
11 Dec - 19:35:18 10° WNW 19:39:14 19° WSW 19:43:01 10° SSW visible
12 Dec - 08:25:51 10° SSE 08:30:16 24° ESE 08:34:50 10° ENE daylight
12 Dec - 10:06:01 10° SW 10:11:42 75° NW 10:17:38 10° NE daylight
12 Dec - 11:49:55 10° W 11:54:41 25° NNW 11:59:29 10° NNE daylight
12 Dec - 13:35:20 10° NW 13:38:45 15° N 13:42:10 10° NNE daylight
12 Dec - 15:18:39 10° NNW 15:23:00 21° NNE 15:27:13 10° ENE daylight
12 Dec - 17:00:34 10° NNW 17:06:18 54° NE 17:11:43 10° ESE visible
12 Dec - 18:42:57 10° NW 18:48:07 35° WSW 18:53:00 10° S visible
13 Dec - 07:36:52 10° SE 07:39:15 13° E 07:41:42 10° ENE daylight
13 Dec - 09:14:32 10° SSW 09:20:08 66° ESE 09:25:59 10° NE daylight
13 Dec - 10:57:19 10° WSW 11:02:35 35° NW 11:07:57 10° NNE daylight
13 Dec - 12:42:34 10° NW 12:46:19 17° NNW 12:50:04 10° NNE daylight
13 Dec - 14:26:53 10° NNW 14:30:39 17° NNE 14:34:20 10° NE daylight
13 Dec - 16:09:02 10° NNW 16:14:23 35° NE 16:19:30 10° ESE visible
13 Dec - 17:51:02 10° NW 17:56:47 63° WSW 18:02:08 10° SSE visible
13 Dec - 19:35:48 10° W 19:37:33 11° W 19:39:17 10° WSW visible
